{"data":{"norad_id":41601,"epoch":"2026-09-19T00:45:03.946752Z","epoch_age_seconds":141287,"freshness":"FRESH","line1":"1 41601U 16040C   26262.03129568  .00006234  00000+0  17061-3 0  9997","line2":"2 41601  96.9520 288.7244 0003918  66.4506 293.7151 15.37663665572288","mean_motion":15.37663665,"eccentricity":0.0003918,"inclination_deg":96.952,"raan_deg":288.7244,"arg_perigee_deg":66.4506,"mean_anomaly_deg":293.7151,"bstar":0.00017061,"rev_number":57228,"period_min":93.648567809528,"perigee_km":450.34365400623,"apogee_km":455.69654871085,"semimajor_km":6831.1571013585,"source":"CELESTRAK","updated_at":"2026-09-20T09:00:34.707005Z"}}